SCP
0 0 0 1 1 1 1 0 0 0 0 0 0 0 0 -0 -0 -0 -0 -0 -0 -0 -0 -0 -0 -0 -0 -0 -0 -0 -0 -0 0 -0 -0 -0 -0 -0 -0 -0 0 0 -0
0 0 1 1 1 1 1 0 0 0 0 0 0 0 0 -0 -0 -0 -0 -0 -0 -0 -0 -0 -0 -0 -0 -0 -0 -0 0 0 0 0 -0 -0 -0 -0 -0 -0 0 0 0
0 1 1 1 1 0 0 1 0 0 0 0 0 0 -0 -0 0 -0 -0 -0 -0 -0 -0 -0 -0 -0 -0 -0 -0 -0 -0 -0 -0 -0 0 -0 -0 -0 -0 -0 0 0 0
0 1 1 1 1 0 0 0 0 0 0 0 0 0 -0 0 0 -0 -0 -0 -0 -0 -0 -0 -0 -0 -0 -0 -0 -0 -0 -0 -0 0 -0 -0 -0 -0 -0 -0 0 0 0
1 1 1 1 0 1 0 0 0 0 0 0 0 0 0 0 0 -0 -0 -0 -0 -0 -0 -0 0 0 0 0 -0 -0 -0 -0 -0 0 -0 -0 -0 0 0 0 0 0 0
1 1 1 1 1 1 0 0 0 0 0 0 0 0 0 0 0 -0 -0 -0 -0 -0 -0 0 0 0 0 0 0 0 0 0 0 0 -0 -0 -0 0 0 0 0 0 0
1 1 0 1 0 0 0 0 0 0 0 0 -0 -0 0 0 0 -0 0 0 0 0 0 0 0 0 0 0 0 0 0 0 0 0 0 -0 -0 0 0 0 0 0 0
0 0 0 0 0 0 0 0 0 0 0 -0 -0 -0 0 0 0 0 0 0 0 0 0 0 0 0 0 0 0 0 0 0 0 0 0 0 0 0 0 0 0 0 0
0 0 0 0 0 0 0 0 0 0 0 -0 -0 -0 -0 0 -0 0 0 0 0 0 0 0 0 0 0 0 0 0 0 0 0 0 0 -0 0 0 0 0 0 0 0
0 0 0 0 0 0 0 0 0 0 0 -0 -0 -0 -0 -0 -0 0 0 0 0 0 0 0 0 0 0 0 0 0 0 0 0 0 0 0 0 0 0 0 0 0 0
0 0 0 -0 -0 0 0 0 0 0 0 -0 0 0 0 0 0 0 0 0 0 0 0 0 0 0 0 0 0 0 0 0 0 0 0 0 0 0 0 0 0 0 0
0 0 -0 -0 0 -0 0 -0 -0 -0 -0 0 0 0 0 0 0 0 0 0 0 0 0 0 0 0 0 0 0 0 0 0 0 0 0 0 0 0 0 0 0 0 0
-0 -0 -0 -0 -0 0 -0 -0 -0 0 0 0 0 0 0 0 0 0 0 0 0 0 0 0 0 0 0 0 0 0 0 0 0 0 0 0 0 0 0 0 0 0 0
-0 -0 0 0 -0 -0 -0 -0 0 0 0 0 0 0 0 0 0 0 0 0 0 0 0 0 0 0 0 0 0 0 0 0 0 0 0 0 0 0 0 0 0 0 0
-0 -0 0 -0 -0 -0 0 0 0 -0 0 0 0 0 0 0 0 0 0 0 0 0 0 0 0 0 0 0 0 0 0 0 0 0 0 0 0 0 0 0 0 0 0
-0 0 0 -0 -0 0 0 -0 -0 0 0 0 0 0 0 0 0 0 0 0 0 0 0 0 0 0 0 0 0 0 0 0 0 0 0 0 0 0 0 0 0 0 0
-0 -0 0 0 -0 -0 -0 -0 0 0 0 0 0 0 0 0 0 0 0 0 0 0 0 0 0 0 0 0 0 0 0 0 0 0 0 0 0 0 0 0 0 0 0
-0 -0 -0 -0 -0 -0 -0 -0 0 0 0 0 0 0 0 0 0 0 0 0 0 0 0 0 0 0 0 0 0 0 0 0 0 0 0 0 0 0 0 0 0 0 0
-0 -0 -0 -0 -0 -0 -0 0 0 0 0 0 0 0 0 0 0 0 0 0 0 0 0 0 0 0 0 0 -0 0 0 0 0 0 0 0 0 0 0 0 0 0 0
-0 -0 -0 -0 -0 -0 0 0 0 0 0 0 0 0 0 0 0 0 0 0 0 0 0 0 0 0 -0 -0 0 0 0 0 0 0 0 0 0 0 0 0 0 0 0
-0 -0 -0 -0 0 0 0 0 0 0 0 0 0 0 0 0 0 0 0 0 0 0 0 0 0 0 0 0 0 0 -0 0 0 0 0 0 0 0 0 0 0 0 0
-0 -0 -0 0 0 0 0 0 0 0 0 0 0 0 0 0 0 0 0 0 0 0 0 0 0 0 0 0 0 0 0 0 0 0 0 0 0 0 0 0 0 0 0
-0 -0 -0 0 0 0 0 0 0 0 0 0 0 0 0 0 0 0 0 0 0 0 0 0 0 0 0 0 0 0 0 0 0 0 0 0 0 0 0 0 0 0 0
-0 -0 -0 -0 0 0 0 0 0 0 0 0 0 0 0 0 0 0 0 0 0 0 0 0 0 0 0 0 0 0 0 0 0 0 0 0 0 0 0 0 0 0 0
-0 -0 -0 -0 0 0 0 0 0 0 0 0 0 0 0 0 0 0 0 0 0 0 0 0 0 0 0 0 0 0 0 0 0 0 0 0 0 0 0 0 0 0 0
-0 -0 -0 -0 0 0 0 0 0 0 0 0 0 0 0 0 0 0 0 0 0 0 0 0 0 0 0 0 0 0 0 0 0 0 0 0 0 0 0 0 0 0 0
Wind_Speed_500mb
60 58 59 64 57 51 48 45 44 41 38 36 32 28 25 27 28 30 31 33 36 37 38 38 38 39 40 38 40 40 35 32 32 33 35 38 35 33 30 28 27 29 28
67 62 63 63 58 52 48 46 44 39 36 33 30 27 28 31 33 35 38 38 39 39 39 39 39 39 41 40 37 33 29 28 28 35 41 38 39 37 33 29 29 28 25
67 65 67 65 62 52 49 47 43 38 34 31 27 30 31 33 37 38 39 39 40 40 42 44 44 43 44 40 38 37 35 38 36 35 38 39 37 28 27 27 27 27 25
66 66 69 66 61 56 50 45 42 36 32 29 28 33 33 35 38 38 38 39 40 44 49 51 52 50 48 42 44 44 46 42 38 36 39 41 41 36 29 27 26 25 23
64 64 67 67 63 56 49 42 39 35 30 28 30 35 36 37 37 36 37 39 42 48 50 51 52 53 46 42 48 47 40 38 34 33 34 35 41 40 36 33 30 26 23
61 65 63 69 65 57 48 42 36 33 29 29 32 35 38 37 36 35 38 40 43 46 46 47 47 47 44 36 39 39 35 32 28 30 29 33 34 37 39 39 34 29 26
59 63 62 60 55 50 46 38 32 28 30 33 35 36 37 37 35 35 38 39 41 40 40 40 37 36 35 32 27 28 32 30 27 29 29 32 34 34 35 37 38 33 28
53 55 51 49 46 41 38 32 31 31 33 34 36 37 37 37 35 34 35 36 34 33 32 30 26 26 27 23 20 18 24 22 21 22 27 31 31 34 36 38 39 34 33
60 57 50 42 42 33 31 31 31 34 35 36 37 37 36 36 34 32 31 29 27 24 23 20 16 17 16 17 15 16 15 17 21 21 24 29 36 36 38 41 39 40 40
61 56 57 57 36 36 34 31 32 34 35 36 37 37 38 37 33 29 26 25 22 19 18 14 14 15 11 10 16 13 9 15 21 22 25 29 34 42 45 46 45 46 39
59 61 42 41 38 36 34 34 34 35 36 38 39 39 37 35 29 27 24 22 21 22 20 15 13 11 7 5 12 15 14 20 23 24 24 29 39 43 46 47 48 45 40
53 49 56 43 39 41 38 38 38 39 39 40 38 36 34 29 24 23 24 24 23 21 14 11 4 2 6 10 17 20 29 27 26 27 29 35 35 39 45 47 45 51 40
60 56 54 47 38 36 39 40 39 42 43 40 34 29 29 23 20 20 22 19 18 14 11 9 6 7 10 15 17 23 23 25 24 29 33 34 30 33 39 43 51 44 41
48 45 39 41 38 37 39 40 41 45 41 36 32 25 22 21 19 20 20 15 18 14 10 10 11 11 12 18 24 23 24 25 23 22 24 25 27 31 32 39 41 37 40
50 48 40 39 42 43 44 42 41 40 37 33 29 25 20 14 13 14 13 11 13 12 12 13 16 21 24 26 26 26 27 27 28 28 28 32 29 30 32 32 30 30 36
51 51 47 43 46 45 46 42 40 37 32 30 26 23 23 22 20 16 14 16 17 18 20 21 23 25 26 28 26 22 22 23 25 29 32 33 26 27 31 33 33 31 22
59 54 49 54 51 49 44 37 34 33 30 30 28 24 21 21 19 19 18 18 19 19 22 23 23 23 26 22 23 23 23 25 30 34 32 32 27 17 15 15 19 21 24
67 59 60 58 53 44 40 40 43 39 35 30 23 19 16 17 19 18 16 17 17 18 20 20 23 26 26 31 32 31 27 26 25 25 25 26 16 7 4 5 10 14 19
59 65 70 65 62 52 53 47 39 36 33 24 21 18 16 19 17 17 15 15 14 14 17 21 26 30 35 36 34 33 37 39 9 16 18 11 9 5 4 7 15 19 20
62 70 69 69 62 56 51 45 41 44 34 25 20 15 16 20 20 17 15 13 12 14 20 24 28 30 33 38 39 44 46 12 5 13 24 17 23 31 36 40 40 41 33
61 58 60 60 58 51 52 48 47 43 35 29 25 23 25 21 18 14 10 10 16 19 20 23 27 31 38 43 49 54 32 5 42 20 15 36 43 47 47 45 40 30 26
61 58 53 51 48 51 50 48 45 38 33 25 27 30 25 20 14 10 11 18 19 20 24 30 31 36 40 45 46 47 24 45 7 53 26 49 32 28 46 43 41 37 36
70 61 51 50 48 50 50 49 42 35 30 35 37 33 26 22 16 11 14 19 25 29 32 32 35 40 44 48 46 40 24 16 61 32 59 31 32 55 47 37 40 40 38
72 63 52 50 46 45 52 49 44 45 47 41 32 27 26 24 18 17 21 23 29 34 37 39 40 41 48 51 49 46 42 43 49 45 35 55 41 47 44 42 40 29 25
71 65 60 54 48 42 51 50 35 37 33 31 34 34 31 22 16 15 19 26 30 33 33 33 38 45 54 53 46 47 46 44 48 54 60 49 56 41 36 43 39 36 37
56 54 61 51 42 45 55 46 37 34 37 40 44 42 34 28 23 25 26 29 31 31 33 38 46 52 54 51 49 46 43 42 47 49 60 59 61 52 53 42 39 36 44
Wind_Direction_500mb
168 165 161 157 157 155 151 146 142 137 132 127 122 115 109 107 105 104 102 97 91 87 82 78 77 76 75 76 76 78 73 65 61 63 56 54 50 48 44 38 35 39 40
164 165 163 160 159 158 153 148 143 136 132 126 118 110 108 107 105 103 99 95 89 82 79 75 74 77 81 83 75 70 62 58 60 63 57 54 43 34 38 34 33 36 37
164 164 164 160 158 160 153 151 141 138 133 123 116 113 111 108 105 101 97 91 88 85 82 80 78 80 87 84 58 52 59 70 57 54 42 30 25 28 32 35 30 32 34
163 162 163 160 157 157 154 150 141 140 131 124 121 116 112 110 105 102 96 93 92 90 87 84 81 82 91 76 59 64 69 59 54 51 46 37 37 35 34 32 31 27 28
163 163 164 159 158 156 152 147 143 136 130 127 125 118 115 111 105 100 98 99 97 94 91 88 84 85 94 79 65 66 67 60 54 43 36 34 30 32 27 28 29 27 21
170 166 163 157 155 153 149 148 145 137 134 128 125 118 117 112 107 105 105 104 99 95 91 87 85 87 91 95 67 66 64 58 50 40 31 24 24 28 25 22 20 16 14
166 161 159 151 148 149 143 147 139 137 133 132 125 122 118 112 109 109 107 103 98 94 91 86 83 81 82 84 90 55 56 54 57 35 19 12 12 12 4 5 5 3 5
157 145 149 147 143 140 141 145 147 139 136 133 129 124 120 116 113 110 106 101 99 95 88 81 77 73 73 73 79 65 55 44 22 20 13 1 2 353 350 352 349 349 344
138 148 144 146 135 146 156 153 147 142 139 137 129 125 120 116 114 110 105 103 100 94 87 86 81 77 81 77 59 58 41 25 2 357 3 358 354 343 339 337 336 337 334
146 144 133 132 154 164 156 154 147 144 139 135 131 127 122 118 114 110 108 104 96 86 79 75 70 71 68 47 25 19 7 349 338 332 334 337 337 333 331 329 331 332 332
146 137 137 166 164 165 159 153 149 142 139 137 133 126 124 123 120 115 107 108 107 103 94 78 73 77 48 1 346 341 333 321 333 326 329 325 326 322 319 325 330 333 334
143 151 156 163 176 169 163 157 154 147 146 142 134 130 126 126 117 106 100 109 103 116 123 123 133 24 291 297 314 323 324 326 335 330 323 319 325 319 320 323 326 328 328
145 158 169 179 180 174 162 155 152 148 144 139 137 139 145 144 140 115 123 134 140 154 179 189 229 253 284 308 317 319 318 316 313 312 313 315 318 324 326 321 323 325 325
161 170 175 185 175 170 164 160 156 154 152 147 158 159 156 157 148 141 158 170 175 176 215 218 239 250 275 303 311 312 308 309 315 316 315 310 316 326 327 319 324 321 323
170 168 167 161 165 167 164 161 157 160 165 167 168 173 176 178 189 188 191 206 189 194 218 232 257 277 288 301 313 313 304 300 299 303 305 308 315 322 324 311 314 320 325
179 170 176 169 163 164 168 167 166 171 173 181 185 196 195 204 213 214 229 225 217 225 246 267 283 297 315 313 310 308 302 302 309 310 306 303 303 331 331 312 314 319 325
179 180 181 178 181 179 177 180 182 185 188 192 201 206 209 213 225 226 224 224 229 244 268 279 300 311 310 318 335 334 321 322 323 318 312 297 291 328 304 310 326 331 326
184 188 186 183 183 187 185 185 191 192 199 206 213 213 207 202 212 220 228 237 246 255 271 296 305 320 327 337 341 337 337 341 328 313 323 340 338 274 177 350 333 334 337
198 194 194 191 189 191 192 194 195 200 207 214 217 207 199 194 204 214 219 234 248 274 291 307 319 330 338 343 350 343 338 345 313 291 310 324 26 55 351 325 328 332 323
185 188 189 189 191 193 197 204 210 211 208 214 215 220 203 201 202 209 220 238 270 299 313 317 329 336 343 344 339 332 335 360 273 300 303 303 302 309 313 314 313 314 312
189 191 194 193 197 199 201 204 204 204 216 234 242 231 207 206 202 216 252 305 312 310 309 328 333 338 337 333 332 333 348 286 318 288 280 303 304 308 315 318 320 312 306
198 195 196 201 204 205 210 209 211 226 239 237 228 203 203 209 224 253 308 315 314 314 318 320 325 329 335 333 333 338 330 325 109 315 338 320 314 300 318 308 304 306 303
202 204 205 206 209 211 210 212 224 227 218 200 199 202 206 221 226 260 305 319 316 306 314 318 323 328 328 329 326 329 331 305 317 319 323 334 309 309 313 302 303 300 297
210 212 215 216 216 213 212 215 222 217 208 203 211 209 223 234 248 293 311 311 305 307 314 315 319 319 321 320 318 317 313 310 312 311 312 314 315 312 304 303 309 302 289
209 212 217 211 210 216 211 209 209 211 215 206 204 220 226 226 249 271 281 285 287 293 295 302 305 309 314 314 316 315 311 309 308 308 311 314 310 311 301 303 298 298 297
207 212 211 214 220 216 205 210 211 218 210 214 217 225 231 223 227 239 247 261 272 279 284 292 300 306 306 306 307 305 303 302 303 307 308 306 309 308 307 299 291 296 300
Wind_Speed_850mb
60 58 59 64 57 51 48 45 44 41 38 36 32 28 25 27 28 30 31 33 36 37 38 38 38 39 40 38 40 40 35 32 32 33 35 38 35 33 30 28 27 29 28
67 62 63 63 58 52 48 46 44 39 36 33 30 27 28 31 33 35 38 38 39 39 39 39 39 39 41 40 37 33 29 28 28 35 41 38 39 37 33 29 29 28 25
67 65 67 65 62 52 49 47 43 38 34 31 27 30 31 33 37 38 39 39 40 40 42 44 44 43 44 40 38 37 35 38 36 35 38 39 37 28 27 27 27 27 25
66 66 69 66 61 56 50 45 42 36 32 29 28 33 33 35 38 38 38 39 40 44 49 51 52 50 48 42 44 44 46 42 38 36 39 41 41 36 29 27 26 25 23
64 64 67 67 63 56 49 42 39 35 30 28 30 35 36 37 37 36 37 39 42 48 50 51 52 53 46 42 48 47 40 38 34 33 34 35 41 40 36 33 30 26 23
61 65 63 69 65 57 48 42 36 33 29 29 32 35 38 37 36 35 38 40 43 46 46 47 47 47 44 36 39 39 35 32 28 30 29 33 34 37 39 39 34 29 26
59 63 62 60 55 50 46 38 32 28 30 33 35 36 37 37 35 35 38 39 41 40 40 40 37 36 35 32 27 28 32 30 27 29 29 32 34 34 35 37 38 33 28
53 55 51 49 46 41 38 32 31 31 33 34 36 37 37 37 35 34 35 36 34 33 32 30 26 26 27 23 20 18 24 22 21 22 27 31 31 34 36 38 39 34 33
60 57 50 42 42 33 31 31 31 34 35 36 37 37 36 36 34 32 31 29 27 24 23 20 16 17 16 17 15 16 15 17 21 21 24 29 36 36 38 41 39 40 40
61 56 57 57 36 36 34 31 32 34 35 36 37 37 38 37 33 29 26 25 22 19 18 14 14 15 11 10 16 13 9 15 21 22 25 29 34 42 45 46 45 46 39
59 61 42 41 38 36 34 34 34 35 36 38 39 39 37 35 29 27 24 22 21 22 20 15 13 11 7 5 12 15 14 20 23 24 24 29 39 43 46 47 48 45 40
53 49 56 43 39 41 38 38 38 39 39 40 38 36 34 29 24 23 24 24 23 21 14 11 4 2 6 10 17 20 29 27 26 27 29 35 35 39 45 47 45 51 40
60 56 54 47 38 36 39 40 39 42 43 40 34 29 29 23 20 20 22 19 18 14 11 9 6 7 10 15 17 23 23 25 24 29 33 34 30 33 39 43 51 44 41
48 45 39 41 38 37 39 40 41 45 41 36 32 25 22 21 19 20 20 15 18 14 10 10 11 11 12 18 24 23 24 25 23 22 24 25 27 31 32 39 41 37 40
50 48 40 39 42 43 44 42 41 40 37 33 29 25 20 14 13 14 13 11 13 12 12 13 16 21 24 26 26 26 27 27 28 28 28 32 29 30 32 32 30 30 36
51 51 47 43 46 45 46 42 40 37 32 30 26 23 23 22 20 16 14 16 17 18 20 21 23 25 26 28 26 22 22 23 25 29 32 33 26 27 31 33 33 31 22
59 54 49 54 51 49 44 37 34 33 30 30 28 24 21 21 19 19 18 18 19 19 22 23 23 23 26 22 23 23 23 25 30 34 32 32 27 17 15 15 19 21 24
67 59 60 58 53 44 40 40 43 39 35 30 23 19 16 17 19 18 16 17 17 18 20 20 23 26 26 31 32 31 27 26 25 25 25 26 16 7 4 5 10 14 19
59 65 70 65 62 52 53 47 39 36 33 24 21 18 16 19 17 17 15 15 14 14 17 21 26 30 35 36 34 33 37 39 9 16 18 11 9 5 4 7 15 19 20
62 70 69 69 62 56 51 45 41 44 34 25 20 15 16 20 20 17 15 13 12 14 20 24 28 30 33 38 39 44 46 12 5 13 24 17 23 31 36 40 40 41 33
61 58 60 60 58 51 52 48 47 43 35 29 25 23 25 21 18 14 10 10 16 19 20 23 27 31 38 43 49 54 32 5 42 20 15 36 43 47 47 45 40 30 26
61 58 53 51 48 51 50 48 45 38 33 25 27 30 25 20 14 10 11 18 19 20 24 30 31 36 40 45 46 47 24 45 7 53 26 49 32 28 46 43 41 37 36
70 61 51 50 48 50 50 49 42 35 30 35 37 33 26 22 16 11 14 19 25 29 32 32 35 40 44 48 46 40 24 16 61 32 59 31 32 55 47 37 40 40 38
72 63 52 50 46 45 52 49 44 45 47 41 32 27 26 24 18 17 21 23 29 34 37 39 40 41 48 51 49 46 42 43 49 45 35 55 41 47 44 42 40 29 25
71 65 60 54 48 42 51 50 35 37 33 31 34 34 31 22 16 15 19 26 30 33 33 33 38 45 54 53 46 47 46 44 48 54 60 49 56 41 36 43 39 36 37
56 54 61 51 42 45 55 46 37 34 37 40 44 42 34 28 23 25 26 29 31 31 33 38 46 52 54 51 49 46 43 42 47 49 60 59 61 52 53 42 39 36 44
Wind_Direction_850mb
168 165 161 157 157 155 151 146 142 137 132 127 122 115 109 107 105 104 102 97 91 87 82 78 77 76 75 76 76 78 73 65 61 63 56 54 50 48 44 38 35 39 40
164 165 163 160 159 158 153 148 143 136 132 126 118 110 108 107 105 103 99 95 89 82 79 75 74 77 81 83 75 70 62 58 60 63 57 54 43 34 38 34 33 36 37
164 164 164 160 158 160 153 151 141 138 133 123 116 113 111 108 105 101 97 91 88 85 82 80 78 80 87 84 58 52 59 70 57 54 42 30 25 28 32 35 30 32 34
163 162 163 160 157 157 154 150 141 140 131 124 121 116 112 110 105 102 96 93 92 90 87 84 81 82 91 76 59 64 69 59 54 51 46 37 37 35 34 32 31 27 28
163 163 164 159 158 156 152 147 143 136 130 127 125 118 115 111 105 100 98 99 97 94 91 88 84 85 94 79 65 66 67 60 54 43 36 34 30 32 27 28 29 27 21
170 166 163 157 155 153 149 148 145 137 134 128 125 118 117 112 107 105 105 104 99 95 91 87 85 87 91 95 67 66 64 58 50 40 31 24 24 28 25 22 20 16 14
166 161 159 151 148 149 143 147 139 137 133 132 125 122 118 112 109 109 107 103 98 94 91 86 83 81 82 84 90 55 56 54 57 35 19 12 12 12 4 5 5 3 5
157 145 149 147 143 140 141 145 147 139 136 133 129 124 120 116 113 110 106 101 99 95 88 81 77 73 73 73 79 65 55 44 22 20 13 1 2 353 350 352 349 349 344
138 148 144 146 135 146 156 153 147 142 139 137 129 125 120 116 114 110 105 103 100 94 87 86 81 77 81 77 59 58 41 25 2 357 3 358 354 343 339 337 336 337 334
146 144 133 132 154 164 156 154 147 144 139 135 131 127 122 118 114 110 108 104 96 86 79 75 70 71 68 47 25 19 7 349 338 332 334 337 337 333 331 329 331 332 332
146 137 137 166 164 165 159 153 149 142 139 137 133 126 124 123 120 115 107 108 107 103 94 78 73 77 48 1 346 341 333 321 333 326 329 325 326 322 319 325 330 333 334
143 151 156 163 176 169 163 157 154 147 146 142 134 130 126 126 117 106 100 109 103 116 123 123 133 24 291 297 314 323 324 326 335 330 323 319 325 319 320 323 326 328 328
145 158 169 179 180 174 162 155 152 148 144 139 137 139 145 144 140 115 123 134 140 154 179 189 229 253 284 308 317 319 318 316 313 312 313 315 318 324 326 321 323 325 325
161 170 175 185 175 170 164 160 156 154 152 147 158 159 156 157 148 141 158 170 175 176 215 218 239 250 275 303 311 312 308 309 315 316 315 310 316 326 327 319 324 321 323
170 168 167 161 165 167 164 161 157 160 165 167 168 173 176 178 189 188 191 206 189 194 218 232 257 277 288 301 313 313 304 300 299 303 305 308 315 322 324 311 314 320 325
179 170 176 169 163 164 168 167 166 171 173 181 185 196 195 204 213 214 229 225 217 225 246 267 283 297 315 313 310 308 302 302 309 310 306 303 303 331 331 312 314 319 325
179 180 181 178 181 179 177 180 182 185 188 192 201 206 209 213 225 226 224 224 229 244 268 279 300 311 310 318 335 334 321 322 323 318 312 297 291 328 304 310 326 331 326
184 188 186 183 183 187 185 185 191 192 199 206 213 213 207 202 212 220 228 237 246 255 271 296 305 320 327 337 341 337 337 341 328 313 323 340 338 274 177 350 333 334 337
198 194 194 191 189 191 192 194 195 200 207 214 217 207 199 194 204 214 219 234 248 274 291 307 319 330 338 343 350 343 338 345 313 291 310 324 26 55 351 325 328 332 323
185 188 189 189 191 193 197 204 210 211 208 214 215 220 203 201 202 209 220 238 270 299 313 317 329 336 343 344 339 332 335 360 273 300 303 303 302 309 313 314 313 314 312
189 191 194 193 197 199 201 204 204 204 216 234 242 231 207 206 202 216 252 305 312 310 309 328 333 338 337 333 332 333 348 286 318 288 280 303 304 308 315 318 320 312 306
198 195 196 201 204 205 210 209 211 226 239 237 228 203 203 209 224 253 308 315 314 314 318 320 325 329 335 333 333 338 330 325 109 315 338 320 314 300 318 308 304 306 303
202 204 205 206 209 211 210 212 224 227 218 200 199 202 206 221 226 260 305 319 316 306 314 318 323 328 328 329 326 329 331 305 317 319 323 334 309 309 313 302 303 300 297
210 212 215 216 216 213 212 215 222 217 208 203 211 209 223 234 248 293 311 311 305 307 314 315 319 319 321 320 318 317 313 310 312 311 312 314 315 312 304 303 309 302 289
209 212 217 211 210 216 211 209 209 211 215 206 204 220 226 226 249 271 281 285 287 293 295 302 305 309 314 314 316 315 311 309 308 308 311 314 310 311 301 303 298 298 297
207 212 211 214 220 216 205 210 211 218 210 214 217 225 231 223 227 239 247 261 272 279 284 292 300 306 306 306 307 305 303 302 303 307 308 306 309 308 307 299 291 296 300